TimeNST,TemperatureF,Dew PointF,Humidity,Sea Level PressureIn,VisibilityMPH,Wind Direction,Wind SpeedMPH,Gust SpeedMPH,PrecipitationIn,Events,Conditions,WindDirDegrees,DateUTC
12:30 AM,44.1,42.6,95,29.60,-9999.0,SSW,33.4,51.8,0.14,,Unknown,200,2013-01-21 04:00:00
1:30 AM,41.9,41.2,97,29.57,-9999.0,SSW,28.8,35.7,0.31,,Unknown,210,2013-01-21 05:00:00
2:30 AM,40,40,98,29.54,,SSW,27.6,,,,,200,2013-01-21 06:00:00
2:30 AM,40.1,39.6,98,29.54,-9999.0,SSW,27.6,33.4,0.15,,Unknown,200,2013-01-21 06:00:00
3:30 AM,41.0,40.5,98,29.50,-9999.0,SSW,28.8,35.7,0.13,,Unknown,200,2013-01-21 07:00:00
4:30 AM,40.6,40.1,98,29.47,-9999.0,SSW,28.8,35.7,0.04,,Unknown,210,2013-01-21 08:00:00
5:30 AM,39,38,97,29.45,,SSW,24.2,,,,,210,2013-01-21 09:00:00
5:30 AM,39.0,38.5,98,29.45,-9999.0,SSW,24.2,32.2,0.03,,Unknown,210,2013-01-21 09:00:00
6:30 AM,37.8,37.2,98,29.44,-9999.0,SSW,21.9,28.8,0.02,,Unknown,210,2013-01-21 10:00:00
7:30 AM,36.7,36.3,99,29.45,-9999.0,SW,24.2,34.5,N/A,,Unknown,230,2013-01-21 11:00:00
8:30 AM,36,35,97,29.46,,SW,20.7,,,,,230,2013-01-21 12:00:00
8:30 AM,35.8,35.4,99,29.46,-9999.0,SW,20.7,-,N/A,,Unknown,230,2013-01-21 12:00:00
9:30 AM,35.4,35.1,99,29.47,-9999.0,WSW,23.0,-,N/A,,Unknown,240,2013-01-21 13:00:00
10:30 AM,35.1,34.3,97,29.49,-9999.0,WSW,19.6,-,N/A,,Unknown,240,2013-01-21 14:00:00
11:30 AM,35,34,94,29.49,,SW,20.7,,,,,230,2013-01-21 15:00:00
11:30 AM,35.2,34.0,95,29.49,-9999.0,SW,20.7,-,N/A,,Unknown,230,2013-01-21 15:00:00
12:30 PM,31.6,30.0,94,29.51,-9999.0,West,31.1,-,N/A,,Unknown,260,2013-01-21 16:00:00
1:30 PM,31.3,23.7,74,29.53,-9999.0,West,38.0,46.0,N/A,,Unknown,260,2013-01-21 17:00:00
2:30 PM,30,19,52,29.57,,West,35.7,,,,,260,2013-01-21 18:00:00
2:30 PM,29.7,19.2,65,29.57,-9999.0,West,35.7,43.7,N/A,,Unknown,260,2013-01-21 18:00:00
3:30 PM,28.4,18.3,66,29.60,-9999.0,West,34.5,44.9,N/A,,Unknown,260,2013-01-21 19:00:00
4:30 PM,27.7,19.2,71,29.63,-9999.0,West,38.0,46.0,N/A,,Unknown,260,2013-01-21 20:00:00
5:30 PM,27,17,54,29.66,,West,40.3,,,,,260,2013-01-21 21:00:00
5:30 PM,27.3,16.9,65,29.66,-9999.0,West,40.3,50.6,N/A,,Unknown,260,2013-01-21 21:00:00
6:30 PM,25.7,20.7,81,29.68,-9999.0,West,33.4,42.6,N/A,,Unknown,260,2013-01-21 22:00:00
7:30 PM,25.3,17.6,72,29.71,-9999.0,West,35.7,42.6,N/A,,Unknown,270,2013-01-21 23:00:00
8:30 PM,26,18,60,29.73,,West,34.5,,,,,270,2013-01-22 00:00:00
8:30 PM,26.1,17.8,71,29.73,-9999.0,West,34.5,41.4,N/A,,Unknown,270,2013-01-22 00:00:00
9:30 PM,26.1,18.1,72,29.75,-9999.0,West,36.8,46.0,N/A,,Unknown,260,2013-01-22 01:00:00
10:30 PM,25.2,16.3,69,29.78,-9999.0,West,35.7,46.0,N/A,,Unknown,260,2013-01-22 02:00:00
11:30 PM,25,16,56,29.80,,West,34.5,,,,,260,2013-01-22 03:00:00
11:30 PM,25.2,15.6,67,29.80,-9999.0,West,34.5,42.6,N/A,,Unknown,260,2013-01-22 03:00:00